Find Starlink 5327

NORAD ID: 55291 Int'l Des: 2023-010 Owner: SPXS Country: US Constellation: starlink operational
LEOCIRCULAR

Current View

Loading 3D Globe...

About Starlink 5327

Description loading...

Upcoming Passes

Passes for default location (London). Set your location on the main map for personalized predictions.

Altitude History

Loading altitude history...

Two-Line Element Set

1 55291U 23010Y 26150.05577419 .00000481 00000-0 48144-4 0 9998
2 55291 69.9994 179.4356 0003265 261.3293 98.7496 14.98332049185456
Epoch: May 30, 2026 • Age: 12 hours

Current Status

Altitude 592.0 km
Velocity 7.56 km/s
Sub-Earth Point -58.75°S, 58°W
Launch Date Jan 19, 2023
Age 3.3 years
Type internet

Technical Details

Classification Payload
Mass 305.00 kg
Dry Mass 290.00 kg
Total Mass 305.00 kg
Length 0.20 m
Diameter 2.80 m
Span 9.00 m
Shape Box + pan
Manufacturer SPXS
Bus Type Starlink
Phase Status In Orbit
Owner/State SPXS/US

Most Searched